SCP
0 0 0 0 0 0 0 0 0 0 0 0 0 0 0 0 0 0 0 0 0 0 0 0 0 0 0 0 0 0 0 0 0 0 0 0 0 0
0 0 0 0 0 0 0 0 0 0 0 0 0 0 0 0 0 0 0 0 0 0 0 0 0 0 0 0 0 0 0 0 0 0 0 0 0 0
0 0 0 0 0 0 0 0 0 0 0 0 0 0 0 0 0 0 0 0 0 0 0 0 0 0 0 0 0 0 0 0 0 0 0 0 0 0
0 0 0 0 0 0 0 0 0 0 0 0 0 0 0 0 0 0 0 0 0 0 0 0 0 0 0 0 0 0 0 0 0 0 0 0 0 0
0 0 0 0 0 0 0 0 0 0 0 0 0 0 0 0 0 0 0 0 0 0 0 0 0 0 0 0 0 0 0 0 0 0 0 0 0 0
0 0 0 0 0 0 0 0 0 0 0 0 0 0 0 0 0 0 0 0 0 0 0 0 0 0 0 0 0 0 0 0 0 0 0 0 0 0
0 0 0 0 0 0 0 0 0 0 0 0 0 0 0 0 0 0 0 0 0 0 0 0 0 0 0 0 0 0 0 0 0 0 0 0 0 0
0 0 0 0 0 0 0 0 0 0 0 0 0 0 0 0 0 0 0 0 0 0 0 0 0 0 0 0 0 0 0 0 0 0 0 0 0 0
0 0 0 0 0 0 0 0 0 0 0 0 0 0 0 0 0 0 0 0 0 0 0 0 0 0 0 0 0 0 0 0 0 0 0 0 0 0
0 0 0 0 0 0 0 0 0 0 0 0 0 0 0 0 0 0 0 0 0 0 0 0 0 0 0 0 0 0 0 0 0 0 0 0 0 0
0 0 0 0 0 0 0 0 0 0 0 0 0 0 0 0 0 0 0 0 0 0 0 0 0 0 0 0 0 0 0 0 0 0 0 0 0 0
0 0 0 0 0 0 0 0 0 0 0 0 0 0 0 0 0 0 0 0 0 0 0 0 0 0 0 0 0 0 0 0 0 0 0 0 0 0
0 0 0 0 0 0 0 0 0 0 0 0 0 0 0 0 0 0 0 0 0 0 0 0 0 0 0 0 0 0 0 0 0 0 0 0 0 0
0 0 0 0 0 0 0 0 0 0 0 0 0 0 0 0 0 0 0 0 0 0 0 0 0 0 0 0 0 0 0 0 0 0 0 0 0 0
0 0 0 0 0 0 0 0 0 0 0 0 0 0 0 0 0 0 0 0 0 0 0 0 0 0 0 0 0 0 0 0 0 0 0 0 0 0
0 0 0 0 0 0 0 0 0 0 0 0 0 0 0 0 0 0 0 0 0 0 0 0 0 0 0 0 0 0 0 0 0 0 0 0 0 0
0 0 0 0 0 0 0 0 0 0 0 0 0 0 0 0 0 0 0 0 0 0 0 0 0 0 0 0 0 0 0 0 0 0 0 0 0 0
0 0 0 0 0 0 0 0 0 0 0 0 0 0 0 0 0 0 0 0 0 0 0 0 0 0 0 0 0 0 0 0 0 0 0 0 0 0
0 0 0 0 0 0 0 0 0 0 0 0 0 0 0 0 0 0 0 0 0 0 0 0 0 0 0 0 0 0 0 0 0 0 0 0 0 0
0 0 0 0 0 0 0 0 0 0 0 0 0 0 0 0 0 0 0 0 0 0 0 0 0 0 0 0 0 0 0 0 0 0 0 0 0 0
0 0 0 0 0 0 0 0 0 0 0 0 0 0 0 0 0 0 0 0 0 0 0 0 0 0 0 0 0 0 0 0 0 0 0 0 0 0
0 0 0 0 0 0 0 0 0 0 0 0 0 0 0 0 0 0 0 0 0 0 0 0 0 0 0 0 0 0 0 0 0 0 0 0 0 0
0 0 0 0 0 0 0 0 0 0 0 0 0 0 0 0 0 0 0 0 0 0 0 0 0 0 0 0 0 0 0 0 0 0 0 0 0 0
Wind_Speed
4 4 3 2 2 2 1 2 1 3 4 3 3 2 4 5 13 9 10 20 25 25 25 26 26 26 27 27 27 27 27 26 26 26 26 26 25 25
3 4 3 2 2 1 1 1 2 3 5 4 3 3 5 8 14 10 11 23 21 23 25 26 26 26 27 26 26 26 26 26 27 27 27 26 26 25
3 4 3 3 2 2 2 2 2 3 6 6 4 4 5 7 10 8 9 9 10 21 25 25 26 26 26 26 27 27 27 27 27 27 26 26 26 25
5 4 4 3 3 3 2 3 3 4 4 9 6 4 5 8 10 11 10 10 9 20 24 26 26 26 26 27 28 28 27 27 27 26 26 25 25 25
5 5 5 4 4 3 4 4 3 4 4 6 9 5 5 6 9 10 10 8 10 14 21 23 24 26 27 28 28 28 28 27 26 25 25 25 25 25
5 5 5 6 6 5 4 5 5 5 5 7 9 8 8 7 7 9 11 8 10 12 16 18 21 25 26 28 28 28 27 27 26 25 25 25 24 24
6 6 6 8 9 7 6 5 5 5 5 6 8 8 8 8 8 9 11 12 11 9 9 10 12 12 14 19 23 26 27 27 27 27 26 25 24 23
7 6 6 7 10 13 14 13 10 7 5 5 7 9 10 9 9 10 11 13 13 6 10 14 11 12 11 10 21 28 28 29 28 27 26 24 23 22
7 6 6 6 7 6 10 14 13 15 15 9 10 10 10 10 12 13 12 13 15 13 13 15 11 12 11 13 26 29 29 28 27 26 25 24 24 23
8 8 8 7 7 8 7 8 9 9 11 8 8 9 9 10 10 11 10 11 13 11 11 12 12 12 12 11 23 27 26 25 26 27 27 26 26 25
8 8 9 8 13 15 10 9 9 9 12 15 15 14 17 18 15 7 5 6 10 10 8 7 9 13 12 12 13 21 24 27 28 28 27 26 26 24
7 8 11 14 15 17 10 8 10 9 6 6 7 9 9 10 14 8 5 6 7 8 5 7 10 11 10 6 9 12 15 21 26 26 26 26 25 15
7 7 8 16 18 18 16 10 13 10 4 4 3 4 5 5 6 6 6 6 8 8 8 9 10 10 10 12 12 13 12 12 14 16 20 24 24 19
8 7 8 15 18 19 15 15 17 10 2 1 2 3 4 5 5 6 8 9 10 13 13 13 11 11 12 14 13 11 12 12 13 13 12 17 19 21
8 12 14 17 17 13 16 17 9 2 2 2 3 4 4 5 6 7 8 9 11 11 11 12 12 11 11 13 13 14 15 13 11 9 10 12 12 11
8 8 14 17 15 12 8 8 4 3 3 4 4 4 4 4 5 5 7 7 8 8 8 10 11 12 12 13 13 15 13 10 10 12 12 12 11 10
5 3 3 4 5 5 3 3 3 3 3 3 3 4 4 5 5 5 4 5 6 9 11 8 9 10 12 13 13 12 11 11 11 12 12 13 12 10
7 5 5 6 7 7 6 6 5 5 4 4 4 4 4 5 5 5 5 6 7 9 10 10 11 12 8 7 10 10 9 10 12 13 12 12 14 11
6 5 5 5 6 6 5 5 5 4 3 3 4 3 3 4 4 5 6 6 7 8 9 9 9 9 12 13 8 8 11 13 13 12 10 10 13 13
2 2 3 3 4 4 5 5 4 3 3 3 3 3 3 3 4 5 5 6 7 8 9 8 7 8 10 11 11 13 17 13 12 13 12 11 10 14
2 2 3 3 3 4 4 4 4 4 4 3 3 4 3 3 4 5 5 8 7 7 9 9 9 13 10 8 10 10 9 15 18 13 13 11 9 7
2 3 3 3 4 3 3 3 3 4 4 4 4 4 4 4 5 6 5 6 6 7 9 10 10 9 6 7 10 12 12 13 15 18 14 12 9 8
3 3 3 4 4 3 3 4 5 4 4 4 4 4 4 4 4 5 5 6 6 8 9 9 8 6 7 7 8 10 12 13 10 10 9 16 20 17
Wind_Direction
128 126 124 125 120 121 128 154 200 293 290 276 289 309 344 329 326 329 326 320 325 325 323 322 321 320 320 318 318 317 315 315 316 316 314 312 309 307
142 141 140 144 139 137 144 160 179 213 274 272 258 293 318 317 319 323 314 320 320 319 320 318 318 319 318 317 317 316 316 318 318 316 315 314 312 309
160 163 172 168 165 172 177 192 207 209 263 281 261 299 297 309 315 310 308 305 308 314 314 315 316 317 315 315 314 314 314 314 313 312 310 308 306 307
182 182 193 187 193 196 200 212 219 220 243 284 293 300 296 305 306 308 308 307 303 307 311 313 313 312 312 312 312 312 312 311 310 308 307 306 306 306
189 196 202 198 216 214 214 219 224 237 231 265 287 294 294 300 307 304 299 292 299 305 309 308 308 309 310 310 310 310 309 308 306 305 304 305 305 304
202 206 209 210 221 222 226 225 226 235 240 259 278 291 296 298 297 310 312 308 304 304 301 305 307 308 306 306 306 307 305 303 303 304 305 304 303 302
214 218 221 226 233 231 231 224 224 234 243 259 278 289 294 307 311 312 307 308 300 292 300 305 304 300 301 302 304 301 302 304 305 306 305 303 301 300
219 223 228 233 244 252 256 255 245 236 233 245 274 282 292 301 305 305 307 309 308 311 313 307 303 300 300 296 300 304 306 307 306 305 304 304 303 302
217 221 230 229 228 241 258 265 267 267 261 259 270 278 290 298 302 304 304 304 301 308 309 300 302 300 301 303 308 307 306 306 307 308 308 308 308 305
219 220 229 235 229 235 240 246 247 250 256 264 266 274 280 289 292 299 305 303 297 296 300 295 301 303 308 306 303 302 306 311 314 314 311 309 307 306
223 222 229 236 245 248 246 245 252 251 260 265 270 280 290 301 306 307 308 306 302 304 303 287 305 314 305 295 297 309 315 313 310 308 307 307 307 307
231 233 235 240 248 250 244 240 251 253 245 259 275 291 298 300 302 297 289 287 295 301 310 313 310 320 308 293 309 310 306 305 307 307 306 306 306 305
234 236 237 248 252 252 248 241 249 255 225 222 248 274 284 284 284 284 285 285 287 283 296 309 303 305 294 299 304 301 299 303 306 303 303 304 304 303
237 239 240 252 256 257 257 256 260 259 183 207 262 278 282 282 285 290 292 289 282 284 291 296 292 298 299 298 301 301 302 300 299 298 298 302 304 303
239 245 250 256 260 260 259 262 259 217 189 234 260 271 274 283 294 296 295 291 287 285 287 289 290 294 293 294 296 298 302 303 297 298 304 302 299 299
262 261 262 261 258 250 250 259 240 198 205 230 251 267 281 288 290 294 298 307 304 296 288 290 293 296 295 291 289 289 293 292 298 301 301 299 295 290
249 255 247 248 248 247 241 235 228 215 221 230 245 263 277 286 291 298 294 302 294 301 310 312 303 296 287 283 283 282 287 291 295 302 305 302 297 292
238 238 242 242 244 244 243 240 230 228 230 229 233 246 266 280 290 294 294 292 294 299 304 311 316 316 305 274 266 278 288 298 303 303 300 301 301 301
240 238 241 243 243 240 238 237 234 225 220 225 235 243 258 271 282 289 293 294 294 297 300 305 310 316 318 318 294 291 306 305 304 304 303 301 299 301
278 271 267 265 258 247 240 235 233 224 216 221 228 238 245 257 270 277 283 286 294 300 302 302 303 310 311 302 296 297 302 302 307 308 309 304 292 293
305 299 290 283 273 262 252 244 235 228 221 216 226 233 237 241 257 267 277 285 290 294 299 303 304 307 299 290 293 298 300 311 316 310 309 308 307 301
274 277 280 276 270 260 251 242 238 235 228 225 230 233 234 237 254 266 272 281 286 287 290 296 303 308 305 303 304 305 310 316 320 323 326 330 326 318
269 270 270 269 263 256 248 242 241 242 234 230 231 232 231 238 247 259 270 274 278 286 294 302 309 309 307 304 303 308 311 319 321 326 325 337 341 338